When you browse on this site, cookies collect data to enhance your experience and personalize the content and advertising you see.
Visit our Privacy Policy to learn more. By continuing to use the site, you agree to this use of cookies and data.

Tiempo cada hora Rusino

Hoy, 20 Septiembre, Domingo

Tiempo Temperatura Precipitaciones Viento Presión Humedad
00:00 +6°C° 0 mm 4 mps 745 mmHg 94%
01:00 +6°C° 0 mm 4 mps 745 mmHg 94%
02:00 +7°C° 0 mm 3 mps 745 mmHg 96%
03:00 +5°C° 0 mm 4 mps 745 mmHg 96%
04:00 +5°C° 0 mm 4 mps 745 mmHg 96%
05:00 +5°C° 0 mm 4 mps 745 mmHg 97%
06:00 +6°C° 0 mm 4 mps 746 mmHg 90%
07:00 +7°C° 0 mm 5 mps 746 mmHg 83%
08:00 +8°C° 0 mm 6 mps 747 mmHg 76%
09:00 +9°C° 0 mm 6 mps 747 mmHg 70%
10:00 +10°C° 0 mm 6 mps 747 mmHg 65%
11:00 +11°C° 0 mm 6 mps 748 mmHg 59%
12:00 +11°C° 0 mm 6 mps 748 mmHg 58%
13:00 +13°C° 0 mm 6 mps 748 mmHg 57%
14:00 +13°C° 0 mm 5 mps 748 mmHg 56%
15:00 +12°C° 0 mm 5 mps 748 mmHg 61%
16:00 +11°C° 0 mm 4 mps 748 mmHg 66%
17:00 +10°C° 0 mm 3 mps 748 mmHg 70%
18:00 +9°C° 0 mm 3 mps 748 mmHg 74%
19:00 +8°C° 0 mm 3 mps 749 mmHg 78%
20:00 +7°C° 0 mm 2 mps 749 mmHg 82%
21:00 +7°C° 0 mm 2 mps 749 mmHg 84%
22:00 +6°C° 0 mm 2 mps 749 mmHg 85%
23:00 +5°C° 0 mm 3 mps 749 mmHg 87%

Mañana, 21 Septiembre, Lunes

Tiempo Temperatura Precipitaciones Viento Presión Humedad
00:00 +5°C° 0 mm 3 mps 749 mmHg 89%
01:00 +5°C° 0 mm 3 mps 750 mmHg 91%
02:00 +4°C° 0 mm 3 mps 750 mmHg 93%
03:00 +4°C° 0 mm 3 mps 749 mmHg 93%
04:00 +4°C° 0 mm 3 mps 749 mmHg 94%
05:00 +4°C° 0 mm 3 mps 749 mmHg 95%
06:00 +6°C° 0 mm 4 mps 749 mmHg 89%
07:00 +7°C° 0 mm 5 mps 749 mmHg 84%
08:00 +8°C° 0 mm 5 mps 749 mmHg 78%
09:00 +10°C° 0 mm 5 mps 749 mmHg 73%
10:00 +11°C° 0 mm 6 mps 749 mmHg 69%
11:00 +13°C° 0 mm 6 mps 749 mmHg 64%
12:00 +14°C° 0 mm 6 mps 749 mmHg 62%
13:00 +14°C° 0 mm 6 mps 749 mmHg 60%
14:00 +15°C° 0 mm 6 mps 748 mmHg 59%
15:00 +14°C° 0 mm 5 mps 748 mmHg 63%
16:00 +13°C° 0 mm 4 mps 748 mmHg 68%
17:00 +12°C° 0 mm 3 mps 748 mmHg 73%
18:00 +11°C° 0 mm 3 mps 748 mmHg 76%
19:00 +10°C° 0 mm 3 mps 748 mmHg 80%
20:00 +9°C° 0 mm 3 mps 748 mmHg 83%
21:00 +9°C° 0 mm 3 mps 748 mmHg 85%
22:00 +9°C° 0 mm 3 mps 748 mmHg 87%
23:00 +9°C° 0 mm 3 mps 748 mmHg 89%

Pasado mañana, 22 Septiembre, Martes

Tiempo Temperatura Precipitaciones Viento Presión Humedad
00:00 +9°C° 0 mm 3 mps 748 mmHg 90%
01:00 +9°C° 0 mm 3 mps 748 mmHg 92%
02:00 +9°C° 0 mm 3 mps 748 mmHg 93%
03:00 +8°C° 0 mm 3 mps 748 mmHg 94%
04:00 +7°C° 0 mm 4 mps 748 mmHg 94%
05:00 +7°C° 0 mm 4 mps 748 mmHg 94%
06:00 +10°C° 0 mm 4 mps 748 mmHg 89%
07:00 +10°C° 0 mm 5 mps 748 mmHg 83%
08:00 +12°C° 0 mm 5 mps 748 mmHg 78%
09:00 +14°C° 0 mm 6 mps 748 mmHg 72%
10:00 +15°C° 0 mm 6 mps 748 mmHg 66%
11:00 +17°C° 0 mm 6 mps 748 mmHg 60%
12:00 +19°C° 0 mm 6 mps 748 mmHg 58%
13:00 +19°C° 0 mm 6 mps 748 mmHg 57%
14:00 +20°C° 0 mm 6 mps 748 mmHg 55%
15:00 +19°C° 0 mm 6 mps 748 mmHg 60%
16:00 +17°C° 0 mm 5 mps 747 mmHg 65%
17:00 +17°C° 0 mm 4 mps 747 mmHg 70%
18:00 +15°C° 0 mm 4 mps 747 mmHg 73%
19:00 +13°C° 0 mm 4 mps 747 mmHg 76%
20:00 +12°C° 0 mm 4 mps 748 mmHg 80%
21:00 +12°C° 0 mm 3 mps 748 mmHg 81%
22:00 +12°C° 0 mm 3 mps 747 mmHg 81%
23:00 +11°C° 0 mm 3 mps 747 mmHg 82%

23 Septiembre, Miércoles

Tiempo Temperatura Precipitaciones Viento Presión Humedad
00:00 +11°C° 0 mm 3 mps 748 mmHg 82%
01:00 +11°C° 0 mm 3 mps 748 mmHg 83%
02:00 +10°C° 0 mm 3 mps 748 mmHg 83%
03:00 +10°C° 0 mm 3 mps 748 mmHg 83%
04:00 +10°C° 0 mm 2 mps 748 mmHg 83%
05:00 +10°C° 0 mm 2 mps 748 mmHg 82%
06:00 +12°C° 0 mm 2 mps 748 mmHg 78%
07:00 +13°C° 0 mm 2 mps 748 mmHg 73%
08:00 +14°C° 0 mm 3 mps 748 mmHg 68%
09:00 +17°C° 0 mm 3 mps 748 mmHg 63%
10:00 +19°C° 0 mm 3 mps 748 mmHg 58%
11:00 +21°C° 0 mm 3 mps 748 mmHg 54%
12:00 +21°C° 0 mm 3 mps 748 mmHg 52%
13:00 +22°C° 0 mm 3 mps 748 mmHg 51%
14:00 +22°C° 0 mm 3 mps 748 mmHg 49%
15:00 +21°C° 0 mm 3 mps 747 mmHg 53%
16:00 +19°C° 0 mm 2 mps 747 mmHg 58%
17:00 +18°C° 0 mm 2 mps 747 mmHg 62%
18:00 +17°C° 0 mm 2 mps 747 mmHg 63%
19:00 +16°C° 0 mm 2 mps 747 mmHg 64%
20:00 +15°C° 0 mm 2 mps 748 mmHg 65%
21:00 +14°C° 0 mm 2 mps 748 mmHg 65%
22:00 +14°C° 0 mm 2 mps 748 mmHg 65%
23:00 +14°C° 0 mm 2 mps 748 mmHg 64%

24 Septiembre, Jueves

Tiempo Temperatura Precipitaciones Viento Presión Humedad
00:00 +13°C° 0 mm 2 mps 748 mmHg 65%
01:00 +13°C° 0 mm 2 mps 748 mmHg 65%
02:00 +13°C° 0 mm 2 mps 748 mmHg 65%
03:00 +12°C° 0 mm 2 mps 748 mmHg 65%
04:00 +12°C° 0 mm 2 mps 748 mmHg 65%
05:00 +12°C° 0 mm 2 mps 748 mmHg 66%
06:00 +13°C° 0 mm 2 mps 748 mmHg 63%
07:00 +14°C° 0 mm 3 mps 748 mmHg 61%
08:00 +16°C° 0 mm 3 mps 748 mmHg 58%
09:00 +18°C° 0 mm 3 mps 748 mmHg 55%
10:00 +19°C° 0 mm 3 mps 748 mmHg 51%
11:00 +21°C° 0 mm 3 mps 748 mmHg 47%
12:00 +22°C° 0 mm 3 mps 748 mmHg 46%
13:00 +22°C° 0 mm 3 mps 748 mmHg 44%
14:00 +24°C° 0 mm 3 mps 748 mmHg 43%
15:00 +21°C° 0 mm 3 mps 748 mmHg 48%
16:00 +20°C° 0 mm 2 mps 747 mmHg 52%
17:00 +18°C° 0 mm 2 mps 747 mmHg 57%
18:00 +17°C° 0 mm 2 mps 747 mmHg 58%
19:00 +16°C° 0 mm 2 mps 747 mmHg 58%
20:00 +15°C° 0 mm 2 mps 747 mmHg 59%
21:00 +15°C° 0 mm 2 mps 747 mmHg 59%
22:00 +15°C° 0 mm 2 mps 747 mmHg 59%
23:00 +14°C° 0 mm 2 mps 747 mmHg 59%

25 Septiembre, Viernes

Tiempo Temperatura Precipitaciones Viento Presión Humedad
00:00 +14°C° 0 mm 2 mps 747 mmHg 59%
01:00 +14°C° 0 mm 2 mps 747 mmHg 58%
02:00 +14°C° 0 mm 2 mps 747 mmHg 58%
03:00 +14°C° 0 mm 2 mps 747 mmHg 58%
04:00 +13°C° 0 mm 2 mps 747 mmHg 58%
05:00 +12°C° 0 mm 3 mps 747 mmHg 57%
06:00 +13°C° 0 mm 3 mps 747 mmHg 56%
07:00 +14°C° 0 mm 3 mps 747 mmHg 55%
08:00 +16°C° 0 mm 3 mps 747 mmHg 54%
09:00 +18°C° 0 mm 3 mps 747 mmHg 51%
10:00 +19°C° 0 mm 3 mps 747 mmHg 48%
11:00 +21°C° 0 mm 4 mps 747 mmHg 46%
12:00 +21°C° 0 mm 4 mps 747 mmHg 45%
13:00 +22°C° 0 mm 4 mps 747 mmHg 44%
14:00 +22°C° 0 mm 4 mps 747 mmHg 44%
15:00 +21°C° 0 mm 4 mps 746 mmHg 48%
16:00 +20°C° 0 mm 4 mps 746 mmHg 53%
17:00 +18°C° 0 mm 4 mps 746 mmHg 58%
18:00 +18°C° 0 mm 4 mps 746 mmHg 56%
19:00 +17°C° 0 mm 4 mps 746 mmHg 55%
20:00 +16°C° 0 mm 5 mps 746 mmHg 54%
21:00 +15°C° 0 mm 5 mps 746 mmHg 54%
22:00 +15°C° 0 mm 5 mps 746 mmHg 54%
23:00 +15°C° 0 mm 5 mps 746 mmHg 54%
Mostrar más